Regional & State Weather Roundups


745 
ASUS43 KDTX 301810
RWRMI 
MICHIGAN HOURLY REGIONAL WEATHER ROUNDUP
NATIONAL WEATHER SERVICE DETROIT/PONTIAC MI
200 PM EDT SUN APR 30 2017
NOTE: "FAIR" INDICATES FEW OR NO CLOUDS BELOW 12,000 FEET WITH NO
SIGNIFICANT WEATHER AND/OR OBSTRUCTION TO VISIBILITY.
MIZ047>049-052>055-059>063-066>070-074>076-081>083-301900-
SOUTHEAST LOWER MICHIGAN
  
CITY           SKY/WX    TMP DP  RH WIND       PRES   REMARKS
ADRIAN         LGT RAIN  50  49  96 SE10      29.88F                  
6HR MIN TEMP:  45; 6HR MAX TEMP:  50; 6HR PCP:  0.03;                
ALMA           CLOUDY    42  41  97 NE16      29.93F                  
ANN ARBOR      LGT RAIN  49  48  97 NE12      29.89F FOG              
BAD AXE        LGT SNOW  38  37  92 E8G16     29.97F WCI  33          
6HR MIN TEMP:  38; 6HR MAX TEMP:  40;                                
CARO           MIX PCPN  39  38  97 NE6       29.95F                  
DETROIT CITY   LGT RAIN  48  47  96 E7        29.93F                  
6HR MIN TEMP:  46; 6HR MAX TEMP:  49; 6HR PCP:  0.04;                
DETROIT        CLOUDY    50  47  89 E8        29.93F                  
6HR MIN TEMP:  46; 6HR MAX TEMP:  51; 6HR PCP:  0.02;                
FLINT          LGT RAIN  42  41  96 E8        29.94F FOG              
6HR MIN TEMP:  41; 6HR MAX TEMP:  44; 6HR PCP:  0.32;                
GROSSE ILE     CLOUDY    51  48  89 E6        29.91F                  
6HR MIN TEMP:  46; 6HR MAX TEMP:  51; 6HR PCP:  0.02;                
HILLSDALE      LGT RAIN  52  50  93 E10       29.85F                  
HOWELL         DRIZZLE   46  44  90 E9        29.90S                  
6HR MIN TEMP:  43; 6HR MAX TEMP:  46; 6HR PCP:  0.11;                
CITY           SKY/WX    TMP DP  RH WIND       PRES   REMARKS
JACKSON        LGT RAIN  50  48  93 E12       29.86F                  
6HR MIN TEMP:  45; 6HR MAX TEMP:  50; 6HR PCP:  0.20;                
LAMBERTVILLE   LGT RAIN  51  48  91 E9        29.89F                  
6HR MIN TEMP:  47; 6HR MAX TEMP:  51;                                
LANSING        CLOUDY    45  42  89 E13       29.88F                  
6HR MIN TEMP:  42; 6HR MAX TEMP:  45; 6HR PCP:  0.29;                
LAPEER         RAIN      42  41  95 E7        29.94F                  
6HR MIN TEMP:  41; 6HR MAX TEMP:  43; 6HR PCP:  0.07;                
MASON          CLOUDY    46  45  97 E7        29.88F                  
MONROE         CLOUDY    51  47  86 E8        29.91F                  
6HR MIN TEMP:  48; 6HR MAX TEMP:  52;                                
MT. CLEMENS    LGT RAIN  49  48  96 E6        29.93F                  
6HR MIN TEMP:  45; 6HR MAX TEMP:  49; 6HR PCP:  0.04;                
PONTIAC        LGT RAIN  46  43  89 SE9       29.91F FOG              
6HR MIN TEMP:  43; 6HR MAX TEMP:  46; 6HR PCP:  0.10;                
PORT HOPE        N/A     40  38  93 E17       30.01F WCI  31          
6HR MIN TEMP:  39; 6HR MAX TEMP:  41; 6HR PCP:  0.22;                
PORT HURON     LGT RAIN  48  41  76 E8        29.94F                  
TRI CITIES     LGT RAIN  41  40  96 E20G26    29.94F FOG              
6HR MIN TEMP:  41; 6HR MAX TEMP:  42; 6HR PCP:  0.40;                
MIDLAND        LGT RAIN  42  39  89 NE16G23   29.93F                  
6HR MIN TEMP:  41; 6HR MAX TEMP:  43; 6HR PCP:  0.24;                
TROY           LGT RAIN  47  44  88 E5        29.95F                  
SAGINAW HB     LGT RAIN  41  36  81 NE17      29.95F                  
$$
MIZ043>046-050>051-056>058-064>065-071>073-077>080-301900-
SOUTHWEST LOWER MICHIGAN
  
CITY           SKY/WX    TMP DP  RH WIND       PRES   REMARKS
BATTLE CREEK   CLOUDY    49  48  97 E7        29.83F                  
6HR MIN TEMP:  44; 6HR MAX TEMP:  49; 6HR PCP:  0.29;                
BENTON HARBOR  CLOUDY    52  49  89 E7        29.78F                  
6HR MIN TEMP:  45; 6HR MAX TEMP:  52; 6HR PCP:  0.60;                
BIG RAPIDS     LGT RAIN  41  38  89 E14G20    29.90F                  
6HR MIN TEMP:  38; 6HR MAX TEMP:  41; 6HR PCP:  0.14;                
COLDWATER      CLOUDY    57  56  98 SE13      29.82F FOG              
6HR MIN TEMP:  45; 6HR MAX TEMP:  57;                                
FREMONT        LGT RAIN  43  41  93 E12       29.88S                  
HOLLAND        RAIN      45  43  93 E15G24    29.83F FOG              
6HR MIN TEMP:  43; 6HR MAX TEMP:  45; 6HR PCP:  0.40;                
GRAND RAPIDS   LGT RAIN  43  43 100 E15       29.85F FOG              
6HR MIN TEMP:  41; 6HR MAX TEMP:  44; 6HR PCP:  0.52;                
IONIA          LGT RAIN  42  41  95 NE13G25   29.87F                  
6HR MIN TEMP:  40; 6HR MAX TEMP:  43; 6HR PCP:  0.22;                
KALAMAZOO      CLOUDY    51  47  86 VRB3      29.82F                  
6HR MIN TEMP:  45; 6HR MAX TEMP:  51; 6HR PCP:  0.27;                
LUDINGTON      RAIN      42  42  97 NE5       29.92S                  
6HR MIN TEMP:  40; 6HR MAX TEMP:  42; 6HR PCP:  0.06;                
MARSHALL       CLOUDY    49  49  98 E10       29.84F FOG              
6HR MIN TEMP:  44; 6HR MAX TEMP:  49; 6HR PCP:  0.38;                
MOUNT PLEASANT MIX PCPN  42  40  93 E13       29.92F                  
6HR MIN TEMP:  39; 6HR MAX TEMP:  42; 6HR PCP:  0.31;                
MUSKEGON       LGT RAIN  45  42  89 E18G24    29.86S FOG              
6HR MIN TEMP:  43; 6HR MAX TEMP:  45; 6HR PCP:  0.30;                
SOUTH HAVEN    DRIZZLE   47  47  98 E9        29.80S                  
$$
MIZ016>042-301900-
NORTHERN LOWER MICHIGAN
  
CITY           SKY/WX    TMP DP  RH WIND       PRES   REMARKS
ALPENA         RAIN      37  36  96 E17       30.08F FOG     WCI  27  
6HR MIN TEMP:  35; 6HR MAX TEMP:  37; 6HR PCP:  0.30;                
BEAVER ISLAND  CLOUDY    38  32  78 E15G26    30.09F WCI  30          
6HR MIN TEMP:  38; 6HR MAX TEMP:  42;                                
BELLAIRE       FLURRIES  39  35  86 NE13      30.02F WCI  32          
6HR MIN TEMP:  36; 6HR MAX TEMP:  40;                                
CADILLAC       LGT RAIN  39  38  94 E16G24    29.92F WCI  30          
CHARLEVOIX     CLOUDY    39  34  82 E16G23    30.07F WCI  30          
6HR MIN TEMP:  37; 6HR MAX TEMP:  40;                                
FRANKFORT      DRIZZLE   41  37  86 NE7G16    29.98S                  
GAYLORD        LGT RAIN  38  35  89 E10G20    30.01F WCI  31          
6HR MIN TEMP:  34; 6HR MAX TEMP:  38; 6HR PCP:  0.03;                
GRAYLING       MIX PCPN  37  35  92 E16G22    30.00F WCI  28          
6HR MIN TEMP:  34; 6HR MAX TEMP:  37;                                
HARBOR SPRINGS DRIZZLE   37  35  93 E15G24    30.06F WCI  27          
HOUGHTON LAKE  RAIN      38  36  92 E14       29.99F FOG     WCI  30  
6HR MIN TEMP:  35; 6HR MAX TEMP:  39; 6HR PCP:  0.14;                
MANISTEE       LGT RAIN  43  41  93 NE5       29.94F FOG              
OSCODA         LGT SNOW  39  38  94 NE20G25   30.03F WCI  30          
6HR MIN TEMP:  37; 6HR MAX TEMP:  39; 6HR PCP:  0.24;                
PELLSTON       LGT RAIN  37  32  82 E15G23    30.10F WCI  28          
6HR MIN TEMP:  37; 6HR MAX TEMP:  39; 6HR PCP: TRACE;                
ROGERS CITY    LGT SNOW  35  34  93 E20G28    30.12F WCI  25          
TRAVERSE CITY  LGT RAIN  41  38  89 NE9       29.99F                  
6HR MIN TEMP:  38; 6HR MAX TEMP:  42; 6HR PCP:  0.01;                
$$
MIZ007>008-015-301900-
EASTERN UPPER MICHIGAN
  
CITY           SKY/WX    TMP DP  RH WIND       PRES   REMARKS
KINROSS        CLOUDY    43  26  51 E16       30.11F                  
6HR MIN TEMP:  40; 6HR MAX TEMP:  43;                                
MACKINAC ISLAN CLOUDY    37  32  82 E9G20     30.10F WCI  30          
6HR MIN TEMP:  37; 6HR MAX TEMP:  39;                                
NEWBERRY       CLOUDY    47  29  50 E9        30.08F                  
6HR MIN TEMP:  39; 6HR MAX TEMP:  47;                                
S. S. MARIE    CLOUDY    47  28  47 SE9       30.10F                  
6HR MIN TEMP:  42; 6HR MAX TEMP:  49;                                
MUNISING         N/A     42  32  67 N8        30.08F                  
6HR MIN TEMP:  41; 6HR MAX TEMP:  48;                                
$$
MIZ004>006-011>014-085-301900-
CENTRAL UPPER MICHIGAN
  
CITY           SKY/WX    TMP DP  RH WIND       PRES   REMARKS
MANISTIQUE     CLOUDY    41  31  68 E10G17    30.09F                  
6HR MIN TEMP:  39; 6HR MAX TEMP:  44;                                
ESCANABA       CLOUDY    42  31  64 E10       30.09F                  
6HR MIN TEMP:  41; 6HR MAX TEMP:  44;                                
MENOMINEE      CLOUDY    38  34  85 NE20G25   30.06S WCI  28          
6HR MIN TEMP:  37; 6HR MAX TEMP:  41; 6HR PCP: TRACE;                
SAWYER-GWINN   CLOUDY    46  28  49 N15       30.08F                  
$$
MIZ001>003-009>011-084-301900-
WESTERN UPPER MICHIGAN
  
CITY           SKY/WX    TMP DP  RH WIND       PRES   REMARKS
IRON MOUNTAIN  CLOUDY    48  26  42 E10       30.03F                  
6HR MIN TEMP:  39; 6HR MAX TEMP:  49;                                
HOUGHTON       PTSUNNY   44  27  51 E15       30.12F                  
6HR MIN TEMP:  38; 6HR MAX TEMP:  44;                                
COPPER HARBOR    N/A     42  32  67 E12G18    30.16F                  
6HR MIN TEMP:  40; 6HR MAX TEMP:  46;                                
IRONWOOD       CLOUDY    50  27  40 NE8G20    30.05F                  
6HR MIN TEMP:  36; 6HR MAX TEMP:  51;                                
$$
ABBREVIATIONS USED IN REMARKS
   TC - TEMPERATURE IN CELSIUS
  WCI - WIND CHILL INDEX
   HX - HEAT INDEX
  VSB - VISIBILITY